FW3344 Weather Reports


time (UTC)temp
C
wind
direction
speed
KPH
gust
KPH
rain 1hr
cm
rain 24hr
cm
rain mn
cm
humidity
%
barometer
mb
20260507170043 30 236 3.2 12.9 0.00 0.00 0.00 100 1015.0
20260507164553 30 172 4.8 11.3 0.00 0.00 0.00 100 1015.0
20260507163048 29 232 1.6 8.0 0.00 0.00 0.00 100 1015.2
20260507161600 28 0 0.0 4.8 0.00 0.00 0.00 2 1015.3
20260507160044 27 227 0.0 4.8 0.00 0.00 0.00 3 1015.4
20260507154545 26 221 1.6 4.8 0.00 0.00 0.00 4 1015.4
20260507153049 25 231 0.0 4.8 0.00 0.00 0.00 7 1015.5
20260507151551 23 221 1.6 4.8 0.00 0.00 0.00 12 1015.5
20260507150052 22 240 0.0 4.8 0.00 0.00 0.00 15 1015.6
20260507144548 20 248 0.0 3.2 0.00 0.00 0.00 21 1015.8
20260507143046 18 215 0.0 3.2 0.00 0.00 0.00 25 1015.8
20260507141557 17 0 0.0 1.6 0.00 0.00 0.00 27 1015.8
20260507140042 16 0 0.0 0.0 0.00 0.00 0.00 28 1015.6
20260507134551 16 0 0.0 1.6 0.00 0.00 0.00 29 1015.4
20260507133048 16 19 0.0 1.6 0.00 0.00 0.00 29 1015.5
20260507131545 16 0 0.0 1.6 0.00 0.00 0.00 26 1015.2
20260507130047 16 0 0.0 1.6 0.00 0.00 0.00 24 1015.2
20260507124543 16 0 0.0 3.2 0.00 0.00 0.00 24 1015.2
20260507123049 16 352 0.0 3.2 0.00 0.00 0.00 22 1015.0
20260507121544 16 0 0.0 3.2 0.00 0.00 0.00 23 1015.0
20260507120056 16 352 0.0 3.2 0.00 0.00 0.00 22 1015.0
20260507114546 16 352 0.0 3.2 0.00 0.00 0.00 23 1015.1
20260507113049 16 352 0.0 3.2 0.00 0.00 0.00 23 1015.3
20260507111546 16 347 0.0 3.2 0.00 0.00 0.00 24 1015.3
20260507110044 16 335 0.0 1.6 0.00 0.00 0.00 24 1015.4
20260507104550 16 0 0.0 1.6 0.00 0.00 0.00 24 1015.5
20260507103045 17 0 0.0 1.6 0.00 0.00 0.00 24 1015.5
20260507101548 16 0 0.0 3.2 0.00 0.00 0.00 24 1015.6
20260507100047 16 0 0.0 1.6 0.00 0.00 0.00 24 1015.6
20260507094550 16 0 0.0 1.6 0.00 0.00 0.00 25 1015.6
20260507093042 16 332 0.0 1.6 0.00 0.00 0.00 25 1015.6
20260507091550 16 0 0.0 1.6 0.00 0.00 0.00 26 1015.7
20260507090047 16 0 0.0 0.0 0.00 0.00 0.00 26 1015.9
20260507084545 16 0 0.0 0.0 0.00 0.00 0.00 26 1015.9
20260507083045 17 0 0.0 0.0 0.00 0.00 0.00 25 1015.9
20260507081547 17 0 0.0 0.0 0.00 0.00 0.00 25 1016.0
20260507080041 17 0 0.0 1.6 0.00 0.00 0.00 24 1016.0
20260507074540 17 0 0.0 3.2 0.00 0.00 0.00 24 1016.0
20260507073043 17 0 0.0 1.6 0.00 0.00 0.00 23 1016.2
20260507071547 17 0 0.0 0.0 0.00 0.00 0.00 22 1016.1
20260507070048 18 0 0.0 1.6 0.00 0.00 0.00 21 1016.1
20260507064604 18 0 0.0 1.6 0.00 0.00 0.00 20 1016.1
20260507063052 19 0 0.0 1.6 0.00 0.00 0.00 19 1016.1
20260507061545 20 0 0.0 1.6 0.00 0.00 0.00 20 1016.1
20260507060045 20 0 0.0 3.2 0.00 0.00 0.00 19 1016.0
20260507054540 21 0 0.0 1.6 0.00 0.00 0.00 19 1016.0
20260507053050 21 0 0.0 0.0 0.00 0.00 0.00 18 1016.1
20260507051546 22 0 0.0 0.0 0.00 0.00 0.00 16 1016.0
20260507050047 22 0 0.0 0.0 0.00 0.00 0.00 15 1015.9
20260507044546 22 0 0.0 0.0 0.00 0.00 0.00 15 1016.0
20260507043041 23 0 0.0 1.6 0.00 0.00 0.00 14 1015.7
20260507041547 23 0 0.0 1.6 0.00 0.00 0.00 13 1015.6
20260507040045 24 0 0.0 0.0 0.00 0.00 0.00 12 1015.4
20260507034557 25 0 0.0 4.8 0.00 0.00 0.00 12 1015.2
20260507033104 25 221 1.6 4.8 0.00 0.00 0.00 11 1015.0
20260507031543 25 243 1.6 6.4 0.00 0.00 0.00 11 1014.9
20260507030045 25 209 3.2 8.0 0.00 0.00 0.00 11 1014.5
20260507024556 26 195 1.6 6.4 0.00 0.00 0.00 11 1014.5
20260507023051 26 204 1.6 6.4 0.00 0.00 0.00 11 1014.1
20260507021601 26 239 1.6 6.4 0.00 0.00 0.00 10 1014.1
20260507020055 26 200 1.6 6.4 0.00 0.00 0.00 10 1014.0
20260507014546 27 221 1.6 9.7 0.00 0.00 0.00 9 1013.9
20260507013111 27 236 3.2 11.3 0.00 0.00 0.00 9 1013.8
20260507011544 27 186 0.0 8.0 0.00 0.00 0.00 9 1013.8
20260507010045 27 214 0.0 6.4 0.00 0.00 0.00 9 1013.8
20260507004551 28 232 3.2 9.7 0.00 0.00 0.00 9 1013.7
20260507003047 28 87 1.6 8.0 0.00 0.00 0.00 9 1013.7
20260507001605 28 188 4.8 14.5 0.00 0.00 0.00 8 1013.8
20260507000044 28 0 3.2 8.0 0.00 0.00 0.00 9 1013.8
20260506234601 28 175 3.2 11.3 0.00 0.00 0.00 8 1013.7
20260506233055 28 189 3.2 11.3 0.00 0.00 0.00 8 1013.9
20260506231543 28 257 1.6 6.4 0.00 0.00 0.00 8 1014.0
20260506230050 28 296 3.2 11.3 0.00 0.00 0.00 8 1014.1
20260506224605 28 250 3.2 12.9 0.00 0.00 0.00 8 1014.4
20260506223043 28 171 1.6 11.3 0.00 0.00 0.00 9 1014.5
20260506221553 28 255 3.2 11.3 0.00 0.00 0.00 9 1014.8
20260506220051 28 229 1.6 11.3 0.00 0.00 0.00 7 1014.9
20260506214551 27 240 3.2 11.3 0.00 0.00 0.00 8 1015.1
20260506213050 27 67 1.6 6.4 0.00 0.00 0.00 8 1015.4
20260506211553 27 167 6.4 11.3 0.00 0.00 0.00 9 1015.5
20260506210044 27 244 4.8 14.5 0.00 0.00 0.00 9 1015.8
20260506204551 27 179 1.6 14.5 0.00 0.00 0.00 9 1016.0
20260506203043 27 232 1.6 8.0 0.00 0.00 0.00 10 1016.2
20260506201543 26 265 4.8 11.3 0.00 0.00 0.00 10 1016.3
20260506200047 26 246 1.6 12.9 0.00 0.00 0.00 10 1016.6
20260506194551 26 217 6.4 12.9 0.00 0.00 0.00 10 1016.8
20260506193050 26 339 3.2 12.9 0.00 0.00 0.00 10 1016.9
20260506191544 26 82 1.6 8.0 0.00 0.00 0.00 10 1016.9
20260506190044 25 218 1.6 11.3 0.00 0.00 0.00 12 1017.0
20260506184552 25 218 4.8 16.1 0.00 0.00 0.00 12 1017.2
20260506183049 26 261 3.2 11.3 0.00 0.00 0.00 11 1017.4
20260506181559 25 44 0.0 9.7 0.00 0.00 0.00 14 1017.5
20260506180045 25 238 1.6 8.0 0.00 0.00 0.00 14 1017.6
20260506174542 24 249 3.2 12.9 0.00 0.00 0.00 15 1017.7
20260506173059 24 240 1.6 11.3 0.00 0.00 0.00 16 1017.7
20260506171555 24 0 1.6 4.8 0.00 0.00 0.00 16 1017.7